GW4499 Weather Reports


Display with metric or nautical units.
time (UTC)temp
F
wind
direction
speed
MPH
gust
MPH
rain 1hr
in
rain 24hr
in
rain mn
in
humidity
%
barometer
mb
20260502190520 70 135 2.0 4.0 0.00 0.00 0.00 15 1019.7
20260502185520 71 113 2.0 4.0 0.00 0.00 0.00 13 1020.1
20260502184520 70 270 1.0 3.0 0.00 0.00 0.00 16 1020.1
20260502183520 69 23 1.0 5.0 0.00 0.00 0.00 16 1020.2
20260502182520 70 180 2.0 4.0 0.00 0.00 0.00 16 1020.7
20260502181520 71 135 1.0 4.0 0.00 0.00 0.00 14 1020.9
20260502180520 71 90 1.0 2.0 0.00 0.00 0.00 15 1021.2
20260502170520 67 203 1.0 2.0 0.00 0.00 0.00 19 1021.8
20260502163520 65 158 1.0 3.0 0.00 0.00 0.00 23 1021.9
20260502162540 64 225 1.0 2.0 0.00 0.00 0.00 26 1022.7
20260502161540 62 135 1.0 3.0 0.00 0.00 0.00 29 1022.5
20260502160520 62 90 1.0 6.0 0.00 0.00 0.00 27 1022.2
20260502151520 56 0.0 2.0 0.00 0.00 0.00 38 1022.1
20260502150520 54 158 1.0 3.0 0.00 0.00 0.00 37 1021.9
20260502130520 35 0.0 0.0 0.00 0.00 0.00 79 1021.1
20260502123519 33 0.0 0.0 0.00 0.00 0.00 82 1020.5
20260502122519 32 0.0 0.0 0.00 0.00 0.00 83 1020.4
20260502121520 32 0.0 1.0 0.00 0.00 0.00 82 1020.4
20260502120520 32 0.0 0.0 0.00 0.00 0.00 82 1020.4
20260502115519 32 0.0 0.0 0.00 0.00 0.00 81 1020.7
20260502114519 33 0.0 0.0 0.00 0.00 0.00 80 1020.8
20260502113520 33 0.0 0.0 0.00 0.00 0.00 81 1020.8
20260502112519 32 0.0 0.0 0.00 0.00 0.00 81 1020.5
20260502111539 33 0.0 0.0 0.00 0.00 0.00 79 1020.8
20260502110519 33 0.0 0.0 0.00 0.00 0.00 79 1020.9
20260502105519 33 0.0 0.0 0.00 0.00 0.00 78 1020.9
20260502104520 34 0.0 0.0 0.00 0.00 0.00 79 1020.9
20260502103519 34 0.0 0.0 0.00 0.00 0.00 80 1020.7
20260502102519 34 0.0 0.0 0.00 0.00 0.00 78 1021.1
20260502100520 35 0.0 0.0 0.00 0.00 0.00 75 1021.4
20260502091519 36 0.0 0.0 0.00 0.00 0.00 71 1021.6
20260502090519 36 0.0 0.0 0.00 0.00 0.00 71 1021.5
20260502071519 40 0.0 0.0 0.00 0.00 0.00 67 1021.9
20260502070519 41 0.0 0.0 0.00 0.00 0.00 64 1021.9
20260502065519 41 0.0 0.0 0.00 0.00 0.00 63 1022.3
20260502064539 40 0.0 1.0 0.00 0.00 0.00 62 1021.9
20260502063519 41 0.0 0.0 0.00 0.00 0.00 60 1022.3
20260502062519 42 0.0 0.0 0.00 0.00 0.00 60 1021.6
20260502061519 42 0.0 0.0 0.00 0.00 0.00 59 1022.0
20260502060519 42 0.0 0.0 0.00 0.00 0.00 57 1022.0
20260502055519 43 0.0 0.0 0.00 0.00 0.00 56 1021.9
20260502054519 44 0.0 0.0 0.00 0.00 0.00 54 1021.9
20260502053539 44 0.0 0.0 0.00 0.00 0.00 52 1022.2
20260502052519 45 0.0 0.0 0.00 0.00 0.00 51 1021.9
20260502051519 45 0.0 1.0 0.00 0.00 0.00 50 1021.9
20260502050519 45 0.0 0.0 0.00 0.00 0.00 49 1021.9
20260502045519 46 0.0 0.0 0.00 0.00 0.00 48 1022.0
20260502044539 46 0.0 0.0 0.00 0.00 0.00 47 1021.9
20260502043519 47 0.0 0.0 0.00 0.00 0.00 46 1021.8
20260502042519 47 0.0 0.0 0.00 0.00 0.00 45 1021.8
20260502041519 48 0.0 0.0 0.00 0.00 0.00 42 1022.0
20260502040519 50 0.0 0.0 0.00 0.00 0.00 40 1022.3
20260502035519 51 0.0 0.0 0.00 0.00 0.00 38 1021.8
20260502034539 51 0.0 0.0 0.00 0.00 0.00 35 1021.8
20260502033519 51 0.0 1.0 0.00 0.00 0.00 37 1021.6
20260502032519 52 0.0 1.0 0.00 0.00 0.00 36 1021.1
20260502031519 51 0.0 0.0 0.00 0.00 0.00 37 1021.0
20260502030539 51 0.0 0.0 0.00 0.00 0.00 38 1020.9
20260502025519 52 0.0 0.0 0.00 0.00 0.00 37 1019.6
20260502024519 53 0.0 0.0 0.00 0.00 0.00 35 1019.8
20260502023519 54 0.0 0.0 0.00 0.00 0.00 32 1019.7
20260502022520 55 0.0 0.0 0.00 0.00 0.00 30 1018.4
20260502021519 56 0.0 0.0 0.00 0.00 0.00 27 1018.7
20260502020519 57 0.0 0.0 0.00 0.00 0.00 26 1018.6
20260502015519 57 0.0 0.0 0.00 0.00 0.00 26 1017.4
20260502014519 58 0.0 0.0 0.00 0.00 0.00 26 1017.6
20260502013539 59 0.0 0.0 0.00 0.00 0.00 25 1017.4
20260502012518 59 0.0 1.0 0.00 0.00 0.00 23 1017.0
20260502011559 60 0.0 1.0 0.00 0.00 0.00 23 1016.9
20260502010539 60 0.0 3.0 0.00 0.00 0.00 22 1016.7
20260502005519 61 315 1.0 5.0 0.00 0.00 0.00 21 1016.6
20260502004519 62 315 2.0 5.0 0.00 0.00 0.00 21 1016.6
20260502003518 62 315 1.0 6.0 0.00 0.00 0.00 20 1016.6
20260502002518 62 315 2.0 8.0 0.00 0.00 0.00 20 1016.6
20260502001538 62 338 1.0 2.0 0.00 0.00 0.00 21 1016.6
20260502000518 63 0.0 3.0 0.00 0.00 0.00 21 1016.6
20260501235519 63 315 2.0 6.0 0.00 0.00 0.00 20 1016.9
20260501234518 63 315 1.0 3.0 0.00 0.00 0.00 20 1016.9
20260501233518 64 0.0 5.0 0.00 0.00 0.00 18 1016.8
20260501232518 63 315 1.0 5.0 0.00 0.00 0.00 19 1016.9
20260501231519 63 315 1.0 3.0 0.00 0.00 0.00 20 1017.0
20260501230518 63 0 1.0 3.0 0.00 0.00 0.00 19 1016.9
20260501225540 64 0.0 1.0 0.00 0.00 0.00 18 1017.3
20260501224518 65 0.0 3.0 0.00 0.00 0.00 18 1017.2
20260501223518 64 338 1.0 2.0 0.00 0.00 0.00 19 1017.3
20260501222518 64 315 2.0 6.0 0.00 0.00 0.00 18 1017.3
20260501221518 64 315 1.0 7.0 0.00 0.00 0.00 18 1017.5
20260501220518 65 0.0 1.0 0.00 0.00 0.00 20 1018.0
20260501215518 65 315 1.0 2.0 0.00 0.00 0.00 19 1018.1
20260501214518 66 0 1.0 8.0 0.00 0.00 0.00 18 1018.7
20260501213518 66 315 1.0 5.0 0.00 0.00 0.00 17 1018.6
20260501212518 65 315 1.0 3.0 0.00 0.00 0.00 17 1018.5
20260501211518 65 315 1.0 4.0 0.00 0.00 0.00 16 1018.9
20260501210518 66 315 1.0 5.0 0.00 0.00 0.00 16 1019.2
20260501205518 66 315 1.0 4.0 0.00 0.00 0.00 16 1019.4
20260501204520 65 315 1.0 6.0 0.00 0.00 0.00 18 1019.6
20260501203521 66 338 1.0 3.0 0.00 0.00 0.00 15 1019.7
20260501202520 64 315 3.0 11.0 0.00 0.00 0.00 15 1019.4
20260501201520 65 338 3.0 10.0 0.00 0.00 0.00 15 1019.8
20260501200520 66 315 1.0 6.0 0.00 0.00 0.00 16 1019.9
20260501195520 65 315 2.0 6.0 0.00 0.00 0.00 14 1020.0
20260501194520 66 315 1.0 5.0 0.00 0.00 0.00 17 1020.1
20260501193540 65 0 1.0 3.0 0.00 0.00 0.00 16 1020.2
20260501192521 65 293 1.0 4.0 0.00 0.00 0.00 15 1020.3
20260501191520 65 338 1.0 4.0 0.00 0.00 0.00 16 1020.4